Regional Weather Roundup
Issued by NWS New Orleans/Baton Rouge, LA

Home | Current Version | Previous Version | Text Only | Print | Product List | Glossary On
Versions: 1 2 3 4 5 6 7 8 9 10 11 12 13 14 15 16 17 18 19 20 21 22 23 24 25 26 27 28 29 30 31 32 33 34 35 36 37 38 39 40 41 42 43 44 45 46 47 48 49 50
000
ASUS44 KLIX 302011
RWRLIX
NEW ORLEANS REGIONAL WEATHER ROUNDUP
NATIONAL WEATHER SERVICE NEW ORLEANS LA
300 PM CDT SAT JUL 30 2016

NOTE: "FAIR" INDICATES FEW OR NO CLOUDS BELOW 12,000 FEET WITH NO
      SIGNIFICANT WEATHER AND/OR OBSTRUCTIONS TO VISIBILITY.
      SKY/WX - SKY CONDITION AND SIGNIFICANT WEATHER.
      TMP - AIR TEMPERATURE.     DP    - DEWPOINT TEMPERATURE.
      RH  - RELATIVE HUMIDITY.   PRES  - PRESSURE.
      HI  - HEAT INDEX.          WCI   - WIND CHILL INDEX.

*  THESE STATIONS ARE NOT NWS OR FAA STATIONS AND ARE NOT UNDER
   NWS QUALITY CONTROL.

LAZ038-040-048-061>063-065>067-069-302100-
SOUTHEAST LOUISIANA

CITY           SKY/WX    TMP DP  RH WIND       PRES   REMARKS
N.O. AUDUBON     N/A     90  77  66 MISG        N/A  HX 103
N.O. INTL ARPT CLOUDY    91  73  55 W3        30.01F HX  99
N.O. LAKEFRONT MOSUNNY   89  74  60 NW3       30.01F HX  98
N.O. DOWNTOWN* MOCLDY    91  74  57 VRB3      30.02F HX 100
RESERVE*         N/A     91  76  60 CALM      30.01F HX 103
SLIDELL        PTSUNNY   92  77  61 SW3       30.00F HX 105
BATON ROUGE    SUNNY     94  71  47 N3        30.00F HX 101
BOOTHVILLE     CLOUDY    86  75  69 NW6       30.04F HX  95
BELLE CHASSE   CLOUDY    83  75  77 E7        30.02F THUNDER
BOGALUSA*        N/A     92  71  50 CALM      30.02F HX  98
GALLIANO*      HVY RAIN  81  74  81 SW5       30.04S
NEW ROADS*       N/A     92  74  54 NW3       30.00F HX 102
GONZALES*        N/A     91  73  54 CALM      30.00S HX  99
HAMMOND*       CLOUDY    91  72  52 S9        30.00F HX  98
HOUMA*         NOT AVBL
PORT FOURCHON* MOCLDY    88  73  62 SW12      30.03F HX  96

$$

MSZ070-080>082-302100-
SOUTHERN MISSISSIPPI

CITY           SKY/WX    TMP DP  RH WIND       PRES   REMARKS
MCCOMB         MOSUNNY   90  74  59 S6        30.01F HX  99
GULFPORT       PTSUNNY   89  75  63 S8        30.00F HX  99
BILOXI         PTSUNNY   89  77  67 SW13      30.00F HX 101
PASCAGOULA     MOSUNNY   90  80  72 SW8       30.00F HX 107
STENNIS ARPT*  MOSUNNY   90  68  48 SW5       30.00F

$$

COASTAL OBSERVATIONS
LAKE AND NEARSHORE STATIONS

STATION/POSITION TIME  TEMP    WIND        PRES    WAVE
                       AIR SEA DIR/SP/G            HT/PER
                 (UTC) (F)     (DEG/KT/KT) (MB)    (FT/S)
PASCAGOULA       1900   90     220/ 10/ 12 1016.1
WAVELAND YACHT   1900   87 88  170/  8/ 12 1016.6
GRAND ISLE       1900   87 89  170/  1/  5 1017.5
SOUTHWEST PASS   1900          220/  5/  7   N/A
NEW CANAL        1900   87 88  360/  3/  4 1016.1
SHELL BEACH      1900   87 90  360/  4/  4 1016.9

OFFSHORE STATIONS

STATION/POSITION TIME  TEMP    WIND        PRES    WAVE
                       AIR SEA DIR/SP/G            HT/PER
                 (UTC) (F)     (DEG/KT/KT) (MB)    (FT/S)
64 S DAUPHIN ISL 1900   86 89  270/  4/  6 1017.0

$$




USA.gov is the U.S. government's official web portal to all federal, state and local government web resources and services.